AAL1118 KDCA-KCLT

Flight info

Callsign AAL1118
Flight time N/A
Altitude 34000
Route SCRAM6 GLANC AIROW CHSLY6
Aircraft B738/M-VGDW/C

Departure

Time 2026-04-20 15:46
Airport Ronald Reagan Washington National Airport (KDCA)

Arrival

Time N/A
Airport Charlotte Douglas International Airport (KCLT)
Time Latitude Longitude Altitude Speed Heading
2026-04-20 15:19 38.85484 -77.04102 23 ft 0 kts 217°
2026-04-20 15:36 38.85493 -77.04094 23 ft 2 kts 216°
2026-04-20 15:36 38.85501 -77.04086 23 ft 1 kts 217°
2026-04-20 15:36 38.85514 -77.04080 22 ft 2 kts 169°
2026-04-20 15:37 38.85527 -77.04089 22 ft 2 kts 125°
2026-04-20 15:37 38.85532 -77.04107 22 ft 1 kts 81°
2026-04-20 15:37 38.85530 -77.04114 23 ft 1 kts 67°
2026-04-20 15:37 38.85529 -77.04119 23 ft 0 kts 72°
2026-04-20 15:38 38.85529 -77.04118 23 ft 0 kts 72°
2026-04-20 15:41 38.85542 -77.04068 21 ft 10 kts 72°
2026-04-20 15:42 38.85554 -77.04018 20 ft 0 kts 72°
2026-04-20 15:42 38.85545 -77.03991 20 ft 4 kts 133°
2026-04-20 15:42 38.85496 -77.03954 20 ft 12 kts 166°
2026-04-20 15:43 38.85378 -77.03936 19 ft 21 kts 176°
2026-04-20 15:43 38.85203 -77.03921 21 ft 28 kts 175°
2026-04-20 15:43 38.84973 -77.03896 19 ft 36 kts 178°
2026-04-20 15:43 38.84734 -77.03874 18 ft 32 kts 175°
2026-04-20 15:44 38.84512 -77.03851 14 ft 30 kts 175°
2026-04-20 15:44 38.84312 -77.03834 14 ft 27 kts 176°
2026-04-20 15:44 38.84210 -77.03799 12 ft 0 kts 132°
2026-04-20 15:45 38.84209 -77.03798 12 ft 0 kts 132°
2026-04-20 15:45 38.84204 -77.03694 12 ft 17 kts 34°
2026-04-20 15:45 38.84318 -77.03694 14 ft 25 kts 354°
2026-04-20 15:45 38.84779 -77.03741 17 ft 104 kts 355°
2026-04-20 15:46 38.85712 -77.03828 96 ft 159 kts 358°
2026-04-20 15:46 38.86926 -77.03826 458 ft 190 kts 353°
2026-04-20 15:46 38.88290 -77.03990 1026 ft 205 kts 342°
2026-04-20 15:46 38.89483 -77.04957 1675 ft 211 kts 307°
2026-04-20 15:47 38.90208 -77.06552 2563 ft 207 kts 297°
2026-04-20 15:47 38.90754 -77.08292 3162 ft 217 kts 291°
2026-04-20 15:47 38.91300 -77.10152 3581 ft 233 kts 298°
2026-04-20 15:47 38.92342 -77.11754 4125 ft 243 kts 324°
2026-04-20 15:48 38.93822 -77.12775 4941 ft 243 kts 334°
2026-04-20 15:48 38.95363 -77.13678 5572 ft 248 kts 328°
2026-04-20 15:48 38.96656 -77.15138 6177 ft 251 kts 302°
2026-04-20 15:48 38.97282 -77.17209 6896 ft 253 kts 281°
2026-04-20 15:49 38.97496 -77.19429 7683 ft 252 kts 278°
2026-04-20 15:49 38.97723 -77.21673 8317 ft 255 kts 281°
2026-04-20 15:49 38.97965 -77.23926 8986 ft 257 kts 275°
2026-04-20 15:49 38.97782 -77.26208 9663 ft 262 kts 255°
2026-04-20 15:50 38.96930 -77.28297 10286 ft 271 kts 237°
2026-04-20 15:50 38.95530 -77.29995 10623 ft 291 kts 219°
2026-04-20 15:50 38.93722 -77.31385 10792 ft 311 kts 214°
2026-04-20 15:50 38.91766 -77.32782 10947 ft 328 kts 215°
2026-04-20 15:51 38.89777 -77.34261 11325 ft 337 kts 216°
2026-04-20 15:51 38.87740 -77.35822 11844 ft 341 kts 217°
2026-04-20 15:51 38.85702 -77.37394 12441 ft 343 kts 217°
2026-04-20 15:51 38.83689 -77.38938 13159 ft 342 kts 217°
2026-04-20 15:52 38.81629 -77.40504 13744 ft 345 kts 218°
2026-04-20 15:52 38.79552 -77.42070 14384 ft 347 kts 218°
2026-04-20 15:52 38.77466 -77.43626 15060 ft 347 kts 218°
2026-04-20 15:53 38.73280 -77.46738 16252 ft 351 kts 219°
2026-04-20 15:53 38.71152 -77.48330 16795 ft 354 kts 219°
2026-04-20 15:53 38.69041 -77.49919 17411 ft 354 kts 220°
2026-04-20 15:53 38.66914 -77.51534 17959 ft 356 kts 220°
2026-04-20 15:54 38.64791 -77.53155 18370 ft 360 kts 220°
2026-04-20 15:54 38.62639 -77.54797 18938 ft 360 kts 220°
2026-04-20 15:54 38.60493 -77.56422 19436 ft 362 kts 220°
2026-04-20 15:54 38.58295 -77.58073 19915 ft 365 kts 220°
2026-04-20 15:55 38.56110 -77.59705 20414 ft 366 kts 220°
2026-04-20 15:55 38.53885 -77.61365 20725 ft 372 kts 220°
2026-04-20 15:55 38.51643 -77.63025 21342 ft 370 kts 220°
2026-04-20 15:55 38.49451 -77.64632 21998 ft 366 kts 220°
2026-04-20 15:56 38.47275 -77.66316 22350 ft 367 kts 223°
2026-04-20 15:56 38.45248 -77.68265 22774 ft 362 kts 230°
2026-04-20 15:56 38.43455 -77.70505 23173 ft 358 kts 235°
2026-04-20 15:56 38.41832 -77.72865 23624 ft 357 kts 237°
2026-04-20 15:57 38.40209 -77.75311 24003 ft 360 kts 237°
2026-04-20 15:57 38.38581 -77.77755 24364 ft 363 kts 237°
2026-04-20 15:57 38.36944 -77.80171 24914 ft 361 kts 236°
2026-04-20 15:57 38.35310 -77.82587 25146 ft 366 kts 237°
2026-04-20 15:58 38.33649 -77.85075 25536 ft 367 kts 237°
2026-04-20 15:58 38.31992 -77.87576 25822 ft 370 kts 237°
2026-04-20 15:58 38.30327 -77.90115 26125 ft 373 kts 237°
2026-04-20 15:58 38.28677 -77.92635 26492 ft 373 kts 237°
2026-04-20 15:59 38.26998 -77.95195 26904 ft 373 kts 237°
2026-04-20 15:59 38.25347 -77.97742 27076 ft 377 kts 237°
2026-04-20 15:59 38.23684 -78.00339 27485 ft 376 kts 238°
2026-04-20 15:59 38.22044 -78.02927 27715 ft 379 kts 238°
2026-04-20 16:00 38.20376 -78.05544 28036 ft 380 kts 237°
2026-04-20 16:00 38.18711 -78.08122 28391 ft 380 kts 237°
2026-04-20 16:00 38.17024 -78.10720 28645 ft 383 kts 237°
2026-04-20 16:00 38.15335 -78.13322 29018 ft 381 kts 237°
2026-04-20 16:01 38.13667 -78.15894 29288 ft 383 kts 237°
2026-04-20 16:01 38.11957 -78.18524 29522 ft 385 kts 237°
2026-04-20 16:01 38.10225 -78.21170 29737 ft 387 kts 237°
2026-04-20 16:01 38.08524 -78.23765 30051 ft 387 kts 237°
2026-04-20 16:02 38.06782 -78.26407 30362 ft 388 kts 236°
2026-04-20 16:02 38.05046 -78.29002 30655 ft 388 kts 236°
2026-04-20 16:02 38.03283 -78.31624 31014 ft 387 kts 236°
2026-04-20 16:02 38.01564 -78.34219 31163 ft 388 kts 237°
2026-04-20 16:03 37.99836 -78.36865 31315 ft 390 kts 237°
2026-04-20 16:03 37.98118 -78.39512 31393 ft 393 kts 237°
2026-04-20 16:03 37.96386 -78.42187 31579 ft 392 kts 237°
2026-04-20 16:03 37.94656 -78.44858 31744 ft 392 kts 237°
2026-04-20 16:04 37.92930 -78.47513 31897 ft 392 kts 237°
2026-04-20 16:04 37.91219 -78.50176 31990 ft 394 kts 238°
2026-04-20 16:04 37.89506 -78.52866 32130 ft 394 kts 238°
2026-04-20 16:04 37.87755 -78.55585 32259 ft 395 kts 238°
2026-04-20 16:05 37.86027 -78.58257 32418 ft 395 kts 238°
2026-04-20 16:05 37.84296 -78.60938 32541 ft 396 kts 238°
2026-04-20 16:05 37.82571 -78.63622 32669 ft 396 kts 238°
2026-04-20 16:05 37.80832 -78.66328 32769 ft 399 kts 238°
2026-04-20 16:06 37.79059 -78.69065 32889 ft 401 kts 238°
2026-04-20 16:06 37.77282 -78.71793 33044 ft 402 kts 238°
2026-04-20 16:06 37.75527 -78.74503 33230 ft 401 kts 238°
2026-04-20 16:06 37.73771 -78.77238 33399 ft 402 kts 238°
2026-04-20 16:07 37.71921 -78.79882 33518 ft 408 kts 233°
2026-04-20 16:07 37.69778 -78.82332 33623 ft 417 kts 227°
2026-04-20 16:07 37.67452 -78.84547 33856 ft 419 kts 224°
2026-04-20 16:07 37.65078 -78.86654 34067 ft 419 kts 223°
2026-04-20 16:08 37.62705 -78.88754 34234 ft 417 kts 224°
2026-04-20 16:08 37.60349 -78.90878 34256 ft 419 kts 224°
2026-04-20 16:08 37.55641 -78.95248 34262 ft 424 kts 225°
2026-04-20 16:09 37.50869 -78.99763 34258 ft 429 kts 225°
2026-04-20 16:09 37.46077 -79.04279 34262 ft 435 kts 225°
2026-04-20 16:10 37.41165 -79.08796 34260 ft 440 kts 223°
2026-04-20 16:10 37.36087 -79.13159 34260 ft 445 kts 222°
2026-04-20 16:11 37.30959 -79.17495 34258 ft 443 kts 223°
2026-04-20 16:11 37.25896 -79.21851 34264 ft 440 kts 223°
2026-04-20 16:12 37.20942 -79.26231 34266 ft 440 kts 224°
2026-04-20 16:12 37.15953 -79.30719 34260 ft 441 kts 224°
2026-04-20 16:13 37.10958 -79.35201 34266 ft 442 kts 224°
2026-04-20 16:13 37.05998 -79.39677 34272 ft 442 kts 224°
2026-04-20 16:14 37.00997 -79.44205 34273 ft 443 kts 224°
2026-04-20 16:14 36.95954 -79.48625 34270 ft 442 kts 223°
2026-04-20 16:15 36.90879 -79.52928 34277 ft 442 kts 223°
2026-04-20 16:15 36.85787 -79.57221 34279 ft 443 kts 223°
2026-04-20 16:16 36.80679 -79.61504 34288 ft 443 kts 223°
2026-04-20 16:16 36.75573 -79.65775 34281 ft 442 kts 222°
2026-04-20 16:17 36.70473 -79.70050 34274 ft 445 kts 222°
2026-04-20 16:17 36.65339 -79.74311 34254 ft 434 kts 222°
2026-04-20 16:18 36.62869 -79.76329 33952 ft 427 kts 222°
2026-04-20 16:18 36.60353 -79.78384 33410 ft 429 kts 222°
2026-04-20 16:18 36.57881 -79.80418 32836 ft 433 kts 222°
2026-04-20 16:18 36.55358 -79.82501 32381 ft 432 kts 222°
2026-04-20 16:19 36.52909 -79.84515 32105 ft 425 kts 222°
2026-04-20 16:19 36.50445 -79.86547 31652 ft 424 kts 222°
2026-04-20 16:19 36.48021 -79.88571 31259 ft 420 kts 223°
2026-04-20 16:19 36.45598 -79.90610 30589 ft 421 kts 223°
2026-04-20 16:20 36.43171 -79.92665 29677 ft 423 kts 223°
2026-04-20 16:20 36.40739 -79.94720 29078 ft 419 kts 222°
2026-04-20 16:20 36.38342 -79.96730 28384 ft 417 kts 222°
2026-04-20 16:20 36.35956 -79.98729 27734 ft 414 kts 222°
2026-04-20 16:21 36.33593 -80.00697 26904 ft 410 kts 222°
2026-04-20 16:21 36.31245 -80.02638 26289 ft 398 kts 221°
2026-04-20 16:21 36.28965 -80.04511 25749 ft 385 kts 221°
2026-04-20 16:21 36.26752 -80.06323 24976 ft 379 kts 221°
2026-04-20 16:22 36.24579 -80.08113 24263 ft 372 kts 222°
2026-04-20 16:22 36.22456 -80.09875 23441 ft 367 kts 222°
2026-04-20 16:22 36.20351 -80.11622 22600 ft 363 kts 221°
2026-04-20 16:22 36.18264 -80.13345 21689 ft 361 kts 221°
2026-04-20 16:23 36.16211 -80.15028 21174 ft 352 kts 221°
2026-04-20 16:23 36.14200 -80.16675 20689 ft 347 kts 221°
2026-04-20 16:23 36.12194 -80.18317 20180 ft 344 kts 221°
2026-04-20 16:23 36.10191 -80.19961 19656 ft 341 kts 221°
2026-04-20 16:24 36.08243 -80.21562 19144 ft 337 kts 221°
2026-04-20 16:24 36.06290 -80.23148 18637 ft 335 kts 221°
2026-04-20 16:24 36.04336 -80.24712 18157 ft 332 kts 220°
2026-04-20 16:24 36.02441 -80.26218 17932 ft 322 kts 220°
2026-04-20 16:25 36.00541 -80.27746 17474 ft 332 kts 221°
2026-04-20 16:25 35.98592 -80.29361 16981 ft 340 kts 221°
2026-04-20 16:25 35.96658 -80.30964 16665 ft 332 kts 221°
2026-04-20 16:25 35.94754 -80.32521 16185 ft 330 kts 221°
2026-04-20 16:26 35.92829 -80.34073 15774 ft 326 kts 221°
2026-04-20 16:26 35.90945 -80.35596 15158 ft 328 kts 220°
2026-04-20 16:26 35.89025 -80.37148 14663 ft 326 kts 221°
2026-04-20 16:26 35.87166 -80.38661 14206 ft 323 kts 221°
2026-04-20 16:27 35.85296 -80.40205 13657 ft 323 kts 221°
2026-04-20 16:27 35.83442 -80.41746 13323 ft 316 kts 221°
2026-04-20 16:27 35.81701 -80.43258 13143 ft 303 kts 225°
2026-04-20 16:27 35.80048 -80.44846 12670 ft 302 kts 227°
2026-04-20 16:28 35.78427 -80.46489 12241 ft 300 kts 227°
2026-04-20 16:28 35.76808 -80.48110 11845 ft 297 kts 226°
2026-04-20 16:28 35.75199 -80.49642 11445 ft 298 kts 222°
2026-04-20 16:28 35.73342 -80.50873 11037 ft 305 kts 208°
2026-04-20 16:29 35.71322 -80.51649 10638 ft 307 kts 201°
2026-04-20 16:29 35.69247 -80.52291 10226 ft 306 kts 202°
2026-04-20 16:29 35.67191 -80.52985 9873 ft 300 kts 203°
2026-04-20 16:29 35.65256 -80.53713 9728 ft 289 kts 205°
2026-04-20 16:30 35.63335 -80.54474 9326 ft 288 kts 205°
2026-04-20 16:30 35.61445 -80.55225 8957 ft 286 kts 205°
2026-04-20 16:30 35.59563 -80.56016 8596 ft 280 kts 210°
2026-04-20 16:30 35.57978 -80.57250 8328 ft 261 kts 234°
2026-04-20 16:31 35.57089 -80.59036 8197 ft 238 kts 259°
2026-04-20 16:31 35.56842 -80.60997 7882 ft 229 kts 275°
2026-04-20 16:31 35.56886 -80.62925 7605 ft 224 kts 276°
2026-04-20 16:31 35.56904 -80.64822 7327 ft 221 kts 273°
2026-04-20 16:32 35.56868 -80.66705 7062 ft 218 kts 272°
2026-04-20 16:32 35.56828 -80.68553 6819 ft 221 kts 272°
2026-04-20 16:32 35.56810 -80.70509 6542 ft 233 kts 272°
2026-04-20 16:32 35.56799 -80.72471 6248 ft 232 kts 272°
2026-04-20 16:33 35.56780 -80.74425 6058 ft 224 kts 272°
2026-04-20 16:33 35.56758 -80.76291 5977 ft 213 kts 272°
2026-04-20 16:33 35.56711 -80.78107 5959 ft 213 kts 265°
2026-04-20 16:33 35.56163 -80.79805 5973 ft 220 kts 239°
2026-04-20 16:34 35.55150 -80.81252 5971 ft 224 kts 232°
2026-04-20 16:34 35.54087 -80.82638 5974 ft 224 kts 233°
2026-04-20 16:34 35.53036 -80.84071 5969 ft 224 kts 233°
2026-04-20 16:34 35.52005 -80.85504 5970 ft 223 kts 234°
2026-04-20 16:35 35.50993 -80.86948 5975 ft 224 kts 235°
2026-04-20 16:35 35.49981 -80.88406 5978 ft 224 kts 234°
2026-04-20 16:35 35.48972 -80.89859 5978 ft 224 kts 236°
2026-04-20 16:35 35.48201 -80.91472 5984 ft 218 kts 256°
2026-04-20 16:36 35.47665 -80.93227 5969 ft 224 kts 244°
2026-04-20 16:36 35.46632 -80.94699 5977 ft 231 kts 223°
2026-04-20 16:36 35.45142 -80.95497 5981 ft 242 kts 191°
2026-04-20 16:36 35.43428 -80.95432 5985 ft 249 kts 178°
2026-04-20 16:37 35.41699 -80.95251 5983 ft 249 kts 181°
2026-04-20 16:37 35.39964 -80.95113 5984 ft 247 kts 180°
2026-04-20 16:37 35.38263 -80.94962 5980 ft 246 kts 180°
2026-04-20 16:37 35.36548 -80.94818 5974 ft 240 kts 180°
2026-04-20 16:38 35.34939 -80.94678 5839 ft 229 kts 180°
2026-04-20 16:38 35.33291 -80.94450 5100 ft 247 kts 178°
2026-04-20 16:38 35.31540 -80.94225 4346 ft 258 kts 179°
2026-04-20 16:38 35.29770 -80.93977 3899 ft 257 kts 179°
2026-04-20 16:39 35.27965 -80.93901 3099 ft 265 kts 183°
2026-04-20 16:39 35.26121 -80.93870 2415 ft 266 kts 179°
2026-04-20 16:39 35.24284 -80.93742 1628 ft 267 kts 178°
2026-04-20 16:39 35.22508 -80.93613 843 ft 247 kts 180°
2026-04-20 16:40 35.20945 -80.93468 827 ft 197 kts 177°
2026-04-20 16:40 35.19845 -80.93319 1278 ft 132 kts 180°
2026-04-20 16:40 35.18864 -80.93230 1232 ft 143 kts 177°
2026-04-20 16:40 35.17905 -80.92995 1450 ft 149 kts 174°
2026-04-20 16:41 35.16828 -80.92976 1879 ft 157 kts 188°
2026-04-20 16:41 35.15769 -80.93024 2436 ft 158 kts 178°
2026-04-20 16:41 35.14755 -80.92488 2962 ft 163 kts 133°
2026-04-20 16:41 35.14283 -80.91287 3488 ft 157 kts 90°
2026-04-20 16:42 35.14295 -80.89991 4022 ft 152 kts 81°
2026-04-20 16:42 35.14367 -80.88699 4353 ft 162 kts 82°
2026-04-20 16:42 35.14447 -80.87390 4938 ft 145 kts 73°
2026-04-20 16:42 35.14836 -80.86247 4911 ft 160 kts 37°
2026-04-20 16:43 35.15862 -80.85656 4996 ft 158 kts 358°
2026-04-20 16:43 35.16793 -80.85662 5790 ft 121 kts 351°
2026-04-20 16:43 35.17626 -80.85693 5832 ft 142 kts 352°
2026-04-20 16:43 35.18650 -80.85735 6300 ft 136 kts 352°
2026-04-20 16:44 35.19516 -80.85729 6623 ft 135 kts 346°
2026-04-20 16:44 35.20603 -80.85828 6337 ft 171 kts 353°
2026-04-20 16:44 35.21739 -80.85988 6825 ft 155 kts 350°
2026-04-20 16:44 35.22774 -80.86120 7156 ft 151 kts 347°
2026-04-20 16:45 35.23920 -80.86198 7008 ft 175 kts 353°
2026-04-20 16:45 35.25105 -80.86288 7304 ft 162 kts 348°
2026-04-20 16:45 35.26172 -80.86337 7456 ft 154 kts 352°
2026-04-20 16:45 35.27301 -80.86382 7227 ft 166 kts 351°
2026-04-20 16:46 35.28412 -80.86469 6978 ft 156 kts 349°
2026-04-20 16:46 35.29504 -80.86561 6549 ft 157 kts 349°
2026-04-20 16:46 35.30583 -80.86700 6189 ft 154 kts 348°
2026-04-20 16:46 35.31649 -80.86865 5791 ft 155 kts 347°
2026-04-20 16:47 35.32718 -80.87026 5395 ft 156 kts 348°
2026-04-20 16:47 35.33791 -80.87135 5015 ft 156 kts 348°
2026-04-20 16:47 35.34844 -80.87266 4764 ft 148 kts 349°
2026-04-20 16:47 35.35890 -80.87448 4292 ft 155 kts 345°
2026-04-20 16:48 35.36948 -80.87632 3969 ft 154 kts 348°
2026-04-20 16:48 35.38025 -80.87719 3655 ft 153 kts 353°
2026-04-20 16:48 35.39064 -80.87759 3458 ft 146 kts 353°
2026-04-20 16:48 35.40079 -80.87801 3258 ft 147 kts 351°
2026-04-20 16:49 35.41096 -80.87907 3296 ft 147 kts 353°
2026-04-20 16:49 35.42158 -80.87989 3217 ft 156 kts 348°
2026-04-20 16:49 35.43157 -80.88417 3337 ft 151 kts 321°
2026-04-20 16:49 35.43790 -80.89412 3425 ft 150 kts 291°
2026-04-20 16:50 35.44150 -80.90657 3398 ft 157 kts 292°
2026-04-20 16:50 35.44385 -80.91943 3460 ft 154 kts 264°
2026-04-20 16:50 35.44094 -80.93188 3488 ft 156 kts 246°
2026-04-20 16:50 35.43378 -80.94236 3425 ft 165 kts 227°
2026-04-20 16:51 35.42330 -80.94885 3384 ft 175 kts 192°
2026-04-20 16:51 35.41087 -80.94825 3352 ft 179 kts 184°
2026-04-20 16:51 35.39840 -80.94859 3304 ft 179 kts 192°
2026-04-20 16:51 35.38613 -80.95015 3302 ft 178 kts 191°
2026-04-20 16:52 35.37369 -80.95083 3300 ft 179 kts 177°
2026-04-20 16:52 35.36126 -80.94710 3250 ft 183 kts 173°
2026-04-20 16:52 35.34863 -80.94503 3193 ft 184 kts 179°
2026-04-20 16:52 35.33575 -80.94376 3026 ft 189 kts 180°
2026-04-20 16:53 35.32250 -80.94304 2772 ft 184 kts 185°
2026-04-20 16:53 35.31004 -80.94312 2554 ft 174 kts 187°
2026-04-20 16:53 35.29807 -80.94288 2206 ft 170 kts 178°
2026-04-20 16:53 35.28640 -80.94096 1894 ft 168 kts 179°
2026-04-20 16:54 35.27392 -80.93967 1833 ft 182 kts 180°
2026-04-20 16:54 35.26155 -80.93841 1653 ft 178 kts 183°
2026-04-20 16:54 35.24844 -80.93797 1521 ft 189 kts 181°
2026-04-20 16:54 35.23581 -80.93677 1136 ft 182 kts 179°
2026-04-20 16:55 35.22318 -80.93589 752 ft 181 kts 179°
2026-04-20 16:55 35.21298 -80.93567 729 ft 90 kts 184°